This is the latest recevied weather packets stored in our database for station/object N1OF. If no packets are shown the sender has not sent any weather packets the latest 10 day(s).
| Time | Temp. | Humidity | Pressure | Rain* | Wind** | Luminosity | Snow |
|---|---|---|---|---|---|---|---|
| 1778020635 | 9.44° C | 96% | 1008.8 hPa | 1.27 mm | - | - | - |
| 1778020331 | 9.44° C | 96% | 1009 hPa | 1.78 mm | - | - | - |
| 1778020027 | 9.44° C | 96% | 1009.2 hPa | 1.78 mm | - | - | - |
| 1778019723 | 9.44° C | 96% | 1009 hPa | 0 mm | - | - | - |
| 1778019421 | 9.44° C | 96% | 1008.9 hPa | 0 mm | - | - | - |
| 1778019117 | 9.44° C | 96% | 1008.9 hPa | 1.78 mm | - | - | - |
| 1778018815 | 10° C | 96% | 1008.7 hPa | 1.78 mm | - | - | - |
| 1778018512 | 10° C | 96% | 1008.6 hPa | 0 mm | - | - | - |
| 1778018210 | 10° C | 96% | 1008.8 hPa | 0 mm | - | - | - |
| 1778017908 | 10° C | 96% | 1008.6 hPa | 0 mm | - | - | - |
| 1778017605 | 10° C | 96% | 1008.7 hPa | 0 mm | - | - | - |
| 1778017302 | 10° C | 96% | 1008.6 hPa | 0 mm | - | - | - |
| 1778017000 | 10° C | 95% | 1008.7 hPa | 1.27 mm | - | - | - |
| 1778016696 | 10° C | 96% | 1008.8 hPa | 1.27 mm | - | - | - |
| 1778016392 | 10° C | 95% | 1009 hPa | 1.78 mm | - | - | - |
| 1778016090 | 10.56° C | 95% | 1008.9 hPa | 3.05 mm | - | - | - |
| 1778015787 | 10.56° C | 95% | 1009 hPa | 3.05 mm | - | - | - |
| 1778015484 | 10° C | 95% | 1008.8 hPa | 1.27 mm | - | - | - |
| 1778015181 | 10° C | 95% | 1008.6 hPa | 3.05 mm | - | - | - |
| 1778014878 | 10° C | 95% | 1008.6 hPa | 4.32 mm | - | - | - |
| 1778014575 | 10.56° C | 95% | 1008.8 hPa | 7.87 mm | - | - | - |
| 1778014273 | 10.56° C | 95% | 1008.6 hPa | 6.6 mm | - | - | - |
| 1778013970 | 10° C | 95% | 1008.9 hPa | 4.83 mm | - | - | - |
| 1778013667 | 10° C | 95% | 1008.6 hPa | 6.1 mm | - | - | - |
| 1778013364 | 10° C | 94% | 1008.8 hPa | 8.89 mm | - | - | - |
* Rain latest hour (hover to see other rain measurements)
** Current wind speed in m/s (hover to see current wind gust speed)